Location: Cartignies
(50.0929°N, 3.8447°E)
Time: 13:37:55
(UTC+00:00)

Cosmos 1743 Rocket - Pass Details

Date: 12 January 2026
Orbit: 597 x 626 km, 82.6° (Epoch: 16 February)

Event Time Altitude Azimuth Distance (km) Brightness Sun altitude
Rises 16:35:24 0° 352° (N) 2,896 6.8 -4.8°
Reaches altitude 10° 16:37:40 10° 355° (N) 1,981 5.9 -5.1°
Maximum altitude 16:42:02 64° 78° (ENE) 679 3.5 -5.7°
Drops below altitude 10° 16:46:18 10° 160° (SSE) 1,947 6.2 -6.4°
Sets 16:48:31 0° 163° (SSE) 2,842 7.1 -6.7°
